{"data":{"norad_id":56186,"intl_designator":"2023-054J","name":"GHGSAT-C8","alt_names":[],"object_type":"PAYLOAD","status":"ACTIVE","operator":null,"country":"CA","launch_date":"2023-04-15","launch_site_code":"AFWTR","launch_vehicle":null,"mission":null,"orbit_class":"UNKNOWN","rcs_meters":null,"size_class":null,"mass_kg":null,"dimensions":null,"purposes":[],"wikipedia_slug":null,"has_3d_model":false,"image_url":null,"decayed_at":null,"tle_current":{"epoch":"2026-09-21T23:42:48.067776Z","epoch_age_seconds":58684,"freshness":"FRESH","line1":"1 56186U 23054J   26264.98805634  .00012638  00000+0  18566-3 0  9991","line2":"2 56186  97.2891 175.9982 0006297  79.3712 280.8252 15.55608493193475","mean_motion":15.55608493,"eccentricity":0.0006297,"inclination_deg":97.2891,"raan_deg":175.9982,"arg_perigee_deg":79.3712,"mean_anomaly_deg":280.8252,"bstar":0.00018566,"rev_number":19347,"period_min":92.568278360512,"perigee_km":396.11595699768,"apogee_km":404.65282683866,"semimajor_km":6778.5213919182,"source":"CELESTRAK","updated_at":"2026-09-22T09:00:25.733902Z"}}}